Location: Newark
(55.4390°N, 25.0170°E)
Time: 22:55:17
(UTC+00:00)

Envisat - Pass Details

Date: 12 March 2021
Orbit: 764 x 766 km, 98.1° (Epoch: 22 April)

Event Time Altitude Azimuth Distance (km) Brightness Sun altitude
Rises 02:41:30 0° 24° (NNE) 3,248 7.0 -17.7°
Reaches altitude 10° 02:44:36 10° 44° (NE) 2,315 6.5 -17.3°
Maximum altitude 02:47:59 18° 86° (E) 1,837 6.0 -16.9°
Drops below altitude 10° 02:51:21 10° 128° (SE) 2,303 5.9 -16.4°
Sets 02:54:25 0° 147° (SSE) 3,223 6.4 -16.0°
